User: anonymous
Location: Unspecified
(0.0000°N, 0.0000°E)
Time: 07:21:51
(UTC+02:00)
Language:

ARIANE 5 R/B - Orbit

View from above orbital plane
View from above orbital plane
View from above satellite
View from above satellite

Ground track
Ground track

The orbit data is extracted from the following two-line orbital elements,

1 29646U 06054D   14211.03920564  .00003401  00000-0  11941-2 0  6982
2 29646 002.7195 086.4525 7154025 074.5042 009.6436 02.43613147 65559
Epoch (UTC): 30 July 2014 00:56:27
Eccentricity: 0.7154025
inclination: 2.7195°
perigee height: 262 km
apogee height: 33644 km
right ascension of ascending node: 86.4525°
argument of perigee: 74.5042°
revolutions per day: 2.43613147
mean anomaly at epoch: 9.6436°
orbit number at epoch: 6555

The dashed part of the orbit path shows where the satellite is in the earth's shadow,  

DLR